Weather in Maurice Bishop International Airport

Grenada     12°05′49″N   61°40′59″W
temp.,
°C
wind,
m/s
gust,
m/s
humid.,
%
clouds,
%
prec.,
mm/h
press.,
hPa
HPBL,
m
22 may, sun
sun2223:00+27ene610703 0.0 1019739
02:00+26e6107712 0.1 1017809
05:00+26e6107822 0.1 1017908
08:00+27e696936 0.3 1018860
11:00+28e69630 0.1 1018922
14:00+28e686590 0.1 1016898
17:00+27e5971100 0.0 1016817
20:00+26e51080100 0.0 1017737
23 may, mon
mon2323:00+26e5107595 0.0 1017699
02:00+26e5880100 0.0 1015782
05:00+26e5878100 0.1 1015781
08:00+27ese687477 0.2 1016973
11:00+27ese6772100 0.3 1016961
14:00+27ese6773100 0.5 1014876
17:00+26e577899 0.1 1013779
20:00+25e5884100 0.3 1014706
24 may, tue
tue2423:00+25e5984100 0.2 1015709
02:00+25e5884100 0.9 1013654
05:00+25e588599 1.7 1013576
08:00+26e688120 2.8 1014779
11:00+27e6872100 0.9 1015914
14:00+27ese687266 1.4 1013907
17:00+26e697895 0.1 1012826
20:00+26e69835 0.1 1014813
25 may, wed
wed2523:00+26e69845 0.1 1015810
02:00+26e698320 0.1 1013764
05:00+26e698186 0.4 1013811
08:00+25ese698447 4.3 1015706
11:00+27e698097 3.7 1016914
14:00+28e787113 3.9 1014933
17:00+27e6974100 0.0 1013835
20:00+26e6979100 0.0 1015776
26 may, thu
thu2623:00+26e61077100 0.0 1016779
02:00+26e6877100 0.1 1014833
05:00+26e6978100 0.0 1014943
08:00+27e697183 0.0 10161053
11:00+28e786899 0.0 1016987
14:00+27e7868100 0.0 1015955
17:00+26e6977100 0.0 1014861
20:00+26e6980100 0.1 1015847